Location: Bijele Vode
(45.2833°N, 16.2000°E)
Time: 17:06:26
(UTC+00:00)

ATLAS 5 CENTAUR R/B - Pass Details

Date: 18 September 2020
Orbit: 262 x 14284 km, 60.7° (Epoch: 19 October)

Event Time Altitude Azimuth Distance (km) Brightness Sun altitude
Rises 17:29:00 0° 319° (NW) 2,102 5.7 -5.9°
Reaches altitude 10° 17:30:17 10° 321° (NW) 1,462 4.8 -6.2°
Maximum altitude 17:33:02 79° 48° (NE) 655 2.1 -6.6°
Drops below altitude 10° 17:40:57 10° 136° (SE) 4,094 5.7 -8.0°
Sets 17:47:08 0° 138° (SE) 6,761 6.8 -9.1°
